Change the Weather History Date:

Sunday, September 29, 2013

  Actual Average (KAPC) Record (KAPC)
Temperature  
Mean Temperature 63 °F 62 °F  
Max Temperature 73 °F 78 °F 96 °F (1999)
Min Temperature 53 °F 46 °F 37 °F (2007)
Degree Days  
Heating Degree Days 2    
Month to date heating degree days  
Since 1 July heating degree days  
Cooling Degree Days 0    
Month to date cooling degree days  
Year to date cooling degree days  
Growing Degree Days 13 (Base 50)    
Moisture  
Dew Point 58 °F    
Average Humidity 88    
Maximum Humidity 100    
Minimum Humidity 61    
Precipitation  
Precipitation 0.00 in - 0.48 in (1930)
Month to date precipitation  
Year to date precipitation  
Since 1 July precipitation  
Sea Level Pressure  
Sea Level Pressure 30.09 in    
Wind  
Wind Speed 5 mph (West)    
Max Wind Speed 15 mph    
Max Gust Speed 18 mph    
Visibility 10 miles    
Events      
T = Trace of Precipitation, MM = Missing Value Source: NWS Daily Summary

Daily Weather History Graph

Daily Weather History Graph

Search for Another Location

Airport or City:

Trip Planner

Search our weather history database for the weather conditions in past years. The results will help you decide how hot, cold, wet, or windy it might be!

Date:

Astronomy

Sep. 29, 2013 Rise Set
Actual Time 7:04 AM PDT 6:55 PM PDT
Civil Twilight 6:38 AM PDT 7:22 PM PDT
Nautical Twilight 6:07 AM PDT 7:52 PM PDT
Astronomical Twilight 5:36 AM PDT 8:23 PM PDT
Moon 1:54 AM PDT (9/29) 3:51 PM PDT (9/29)
Length of Visible Light 12h 43m
Length of Day
11h 51m
Waning Crescent, 26% of the Moon is Illuminated
Sep 29
Waning Crescent
Oct 4
New
Oct 11
First Quarter
Oct 18
Full
Oct 26
Last Quarter

Hourly Weather History & Observations

Time (PDT) Temp. Dew Point Humidity Pressure Visibility Wind Dir Wind Speed Gust Speed Precip Events Conditions
12:15 AM 55.4 °F 55.4 °F 100% 30.10 in 10.0 mi WNW 6.9 mph - N/A   Clear
12:35 AM 55.4 °F 55.4 °F 100% 30.10 in 10.0 mi WNW 5.8 mph - N/A   Clear
12:55 AM 55.4 °F 55.4 °F 100% 30.10 in 10.0 mi WNW 6.9 mph - N/A   Partly Cloudy
1:15 AM 53.6 °F 53.6 °F 100% 30.10 in 10.0 mi WNW 6.9 mph - N/A   Partly Cloudy
1:35 AM 53.6 °F 53.6 °F 100% 30.10 in 10.0 mi West 5.8 mph - N/A   Mostly Cloudy
1:55 AM 55.4 °F 53.6 °F 94% 30.10 in 10.0 mi West 6.9 mph - N/A   Mostly Cloudy
2:15 AM 55.4 °F 53.6 °F 94% 30.10 in 10.0 mi West 6.9 mph - N/A   Partly Cloudy
2:35 AM 55.4 °F 55.4 °F 100% 30.10 in 10.0 mi WNW 4.6 mph - N/A   Partly Cloudy
2:55 AM 53.6 °F 53.6 °F 100% 30.09 in 10.0 mi NW 3.5 mph - N/A   Mostly Cloudy
3:15 AM 53.6 °F 53.6 °F 100% 30.09 in 10.0 mi Calm Calm - N/A   Overcast
3:35 AM 53.6 °F 53.6 °F 100% 30.09 in 10.0 mi WNW 3.5 mph - N/A   Overcast
3:55 AM 53.6 °F 53.6 °F 100% 30.09 in 10.0 mi NNW 3.5 mph - N/A   Overcast
4:15 AM 53.6 °F 53.6 °F 100% 30.09 in 10.0 mi WNW 4.6 mph - N/A   Mostly Cloudy
4:35 AM 53.6 °F 53.6 °F 100% 30.09 in 10.0 mi WNW 4.6 mph - N/A   Overcast
4:55 AM 53.6 °F 53.6 °F 100% 30.09 in 10.0 mi WNW 4.6 mph - N/A   Overcast
5:15 AM 55.4 °F 55.4 °F 100% 30.09 in 10.0 mi WNW 3.5 mph - N/A   Overcast
5:35 AM 55.4 °F 55.4 °F 100% 30.10 in 10.0 mi WNW 3.5 mph - N/A   Overcast
5:55 AM 55.4 °F 55.4 °F 100% 30.09 in 10.0 mi Calm Calm - N/A   Overcast
6:15 AM 55.4 °F 55.4 °F 100% 30.10 in 10.0 mi Calm Calm - N/A   Overcast
6:35 AM 55.4 °F 55.4 °F 100% 30.10 in 10.0 mi Calm Calm - N/A   Overcast
6:55 AM 55.4 °F 55.4 °F 100% 30.10 in 10.0 mi Calm Calm - N/A   Overcast
7:15 AM 55.4 °F 55.4 °F 100% 30.10 in 10.0 mi Calm Calm - N/A   Overcast
7:35 AM 55.4 °F 55.4 °F 100% 30.10 in 10.0 mi Calm Calm - N/A   Overcast
7:55 AM 55.4 °F 55.4 °F 100% 30.10 in 10.0 mi Calm Calm - N/A   Overcast
8:15 AM 57.2 °F 57.2 °F 100% 30.11 in 10.0 mi Calm Calm - N/A   Overcast
8:35 AM 57.2 °F 57.2 °F 100% 30.11 in 10.0 mi Calm Calm - N/A   Overcast
8:55 AM 57.2 °F 57.2 °F 100% 30.12 in 10.0 mi Calm Calm - N/A   Overcast
9:15 AM 57.2 °F 57.2 °F 100% 30.11 in 10.0 mi Calm Calm - N/A   Overcast
9:35 AM 59.0 °F 57.2 °F 94% 30.12 in 10.0 mi Calm Calm - N/A   Overcast
9:55 AM 62.6 °F 59.0 °F 88% 30.12 in 10.0 mi Calm Calm - N/A   Overcast
10:15 AM 64.4 °F 59.0 °F 83% 30.12 in 10.0 mi Calm Calm - N/A   Overcast
10:35 AM 64.4 °F 59.0 °F 83% 30.12 in 10.0 mi Calm Calm - N/A   Overcast
10:55 AM 66.2 °F 59.0 °F 78% 30.12 in 10.0 mi Calm Calm - N/A   Overcast
11:15 AM 66.2 °F 59.0 °F 78% 30.12 in 10.0 mi WNW 4.6 mph - N/A   Overcast
11:35 AM 69.8 °F 59.0 °F 68% 30.11 in 10.0 mi West 6.9 mph - N/A   Overcast
11:55 AM 73.4 °F 59.0 °F 61% 30.11 in 10.0 mi West 13.8 mph - N/A   Mostly Cloudy
12:15 PM 69.8 °F 59.0 °F 68% 30.11 in 10.0 mi WNW 10.4 mph 17.3 mph N/A   Overcast
12:35 PM 71.6 °F 59.0 °F 64% 30.11 in 10.0 mi WNW 9.2 mph - N/A   Mostly Cloudy
12:55 PM 71.6 °F 59.0 °F 64% 30.11 in 10.0 mi West 13.8 mph 18.4 mph N/A   Overcast
1:15 PM 71.6 °F 59.0 °F 64% 30.10 in 10.0 mi WNW 9.2 mph 17.3 mph N/A   Overcast
1:35 PM 71.6 °F 59.0 °F 64% 30.10 in 10.0 mi West 12.7 mph 18.4 mph N/A   Overcast
1:55 PM 73.4 °F 59.0 °F 61% 30.09 in 10.0 mi West 11.5 mph - N/A   Overcast
2:15 PM 73.4 °F 59.0 °F 61% 30.09 in 10.0 mi WSW 12.7 mph - N/A   Mostly Cloudy
2:35 PM 73.4 °F 59.0 °F 61% 30.08 in 10.0 mi West 9.2 mph - N/A   Mostly Cloudy
2:55 PM 71.6 °F 59.0 °F 64% 30.08 in 10.0 mi West 11.5 mph 17.3 mph N/A   Overcast
3:15 PM 73.4 °F 59.0 °F 61% 30.08 in 10.0 mi West 10.4 mph - N/A   Overcast
3:35 PM 71.6 °F 59.0 °F 64% 30.08 in 10.0 mi West 9.2 mph 17.3 mph N/A   Overcast
3:55 PM 71.6 °F 59.0 °F 64% 30.08 in 10.0 mi West 6.9 mph - N/A   Overcast
4:15 PM 71.6 °F 59.0 °F 64% 30.07 in 10.0 mi West 9.2 mph - N/A   Overcast
4:35 PM 68.0 °F 62.6 °F 83% 30.08 in 6.0 mi NW 8.1 mph - N/A   Overcast
4:55 PM 68.0 °F 60.8 °F 78% 30.07 in 10.0 mi West 9.2 mph - N/A   Overcast
5:15 PM 68.0 °F 59.0 °F 73% 30.07 in 10.0 mi WSW 8.1 mph - N/A   Overcast
5:35 PM 68.0 °F 59.0 °F 73% 30.07 in 10.0 mi SW 15.0 mph - N/A   Overcast
5:55 PM 66.2 °F 59.0 °F 78% 30.08 in 10.0 mi WSW 10.4 mph - N/A   Overcast
6:15 PM 64.4 °F 62.6 °F 94% 30.07 in 10.0 mi WSW 4.6 mph - N/A   Overcast
6:35 PM 64.4 °F 60.8 °F 88% 30.07 in 7.0 mi SW 9.2 mph - N/A   Overcast
6:55 PM 64.4 °F 60.8 °F 88% 30.07 in 10.0 mi SW 5.8 mph - N/A   Overcast
7:15 PM 64.4 °F 60.8 °F 88% 30.08 in 10.0 mi WSW 4.6 mph - N/A   Overcast
7:35 PM 64.4 °F 62.6 °F 94% 30.08 in 10.0 mi Calm Calm - N/A   Overcast
7:55 PM 64.4 °F 62.6 °F 94% 30.09 in 10.0 mi Calm Calm - N/A   Overcast
8:15 PM 64.4 °F 62.6 °F 94% 30.09 in 7.0 mi Calm Calm - N/A   Overcast
8:35 PM 64.4 °F 62.6 °F 94% 30.09 in 10.0 mi Calm Calm - N/A   Overcast
8:55 PM 64.4 °F 62.6 °F 94% 30.09 in 10.0 mi Calm Calm - N/A   Overcast
9:15 PM 64.4 °F 62.6 °F 94% 30.09 in 5.0 mi SW 4.6 mph - N/A   Overcast
9:35 PM 64.4 °F 62.6 °F 94% 30.09 in 10.0 mi West 3.5 mph - N/A   Overcast
9:55 PM 64.4 °F 62.6 °F 94% 30.09 in 10.0 mi West 3.5 mph - N/A   Overcast
10:15 PM 64.4 °F 62.6 °F 94% 30.09 in 10.0 mi West 3.5 mph - N/A   Overcast
10:35 PM 64.4 °F 62.6 °F 94% 30.09 in 10.0 mi West 3.5 mph - N/A   Overcast
10:55 PM 64.4 °F 62.6 °F 94% 30.09 in 10.0 mi SW 3.5 mph - N/A   Overcast
11:15 PM 64.4 °F 62.6 °F 94% 30.09 in 7.0 mi Calm Calm - N/A   Overcast
11:35 PM 62.6 °F 62.6 °F 100% 30.08 in 3.0 mi SW 3.5 mph - N/A   Overcast
11:55 PM 62.6 °F 62.6 °F 100% 30.08 in 10.0 mi Calm Calm - N/A   Overcast